Погода в Курске

Хотите узнать прогноз погоды в Курске? Тогда Вам сюда: Погода в Курске

Поиск расширенной информации на нашем сайте:

Полезная информация:

Новости сайта



02.01.2020
Опубликован Долгосрочный прогноз погоды по городам России и ближнего зарубежья на январь 2020 года.
Карты: Прогноз на январь и февраль 2020 года, Сравнение прогнозируемой аномалии приземной температуры воздуха на январь 2020 года по разным моделям.




Погода в Курске - сегодня

Время (UTC), дата Ветер
(°,м/с) 
Видим.   Явления Облачность Т
(°С)
Тd
(°С)
f(%) Тe
(°С)
Pmin
(гПа)
dP
(гПа)
Po
(мм)
O2
(г/м3)
Тmin Tmax R s Состояние
почвы
12 19.10.20 250 (З) 10 км  в посл. час ливневой дождь  9/8 600 м кучево-дожд., средняя 
[Cb cap|Ac trans]
+7.6 +3.8 77 +7  1016.7  -0.2  740  289           
15 19.10.20 250 (З) 10 км  {ливн. осадки}  9/8 600 м средняя 
[Sc diur, vesp|Ac trans]
+5.4 +2.1 79 +5  1017.9  0.9  741  292      0.1     
18 19.10.20 250 (З) 10 км  {ливн. осадки}  1/1 600 м 
[Sc]
+4.1 +2.1 87 +4  1019.3  1.3  742  294    +8.9  0.1     
21 19.10.20 260 (З) 10 км    ясно 
+2.6 -0.1 82 +3  1020.6  1.1  742  296           
00 20.10.20 230 (ЮЗ) 10 км    ясно 
+1.2 -1.2 84 +2  1021.5  0.6  743  298           
03 20.10.20 220 (ЮЗ) 10 км    ясно 
+0.9 -1.3 85 1021.6  0.1  743  298  +0.8         
06 20.10.20 230 (ЮЗ) 10 км    ясно 
+1.9 -1 81 1021.7  0.2  743  297  +0.5        влажная 
09 20.10.20 250 (З) 10 км    4/4 600 м 
[Sc]
+7.1 +0.5 63 +6  1020.9  -0.2  743  292           
12 20.10.20 270 (З) 3{10}  10 км  в посл. час крупа{ливн. осадки}  8/8 600 м кучево-дожд. 
[Cb cap]
+5.3 +1.8 78 +4  1021.2  0.2  743  293           
15 20.10.20 280 (З) 10 км    4/4 600 м 
[Sc]
+5.9 -0.6 63 +6  1022.1  0.9  744  293      0.9     
18 20.10.20 280 (З) 10 км    8/0 средняя 
[Ac trans]
+4.2 -0.5 71 +4  1023.5  1.2  745  296    +7.7  0.9     
21 20.10.20 300 (СЗ) 10 км    3/0 средняя 
[Ac trans]
+2.2 -0.3 84 +3  1025.3  1.5  746  298           
00 21.10.20 290 (З) 4000 м  дымка  ясно 
+0.2 -0.5 95 +1  1026.9  1.3  747  301           
03 21.10.20 тихо ()   4000 м  дымка  ясно 
-0.8 -1.3 96 -1  1027.5  0.5  747  302  -0.8         
06 21.10.20 220 (ЮЗ) 4000 м  дымка  9/0 верхняя 
[Cc]
+0.7 +0 95 +1  1027.4  747  300  -1.4        замёрзшая 
09 21.10.20 220 (ЮЗ) 10 км    10/8 600 м средняя 
[Sc|Ac trans]
+4.7 +1.5 80 +4  1026.5  -0.4  747  296           
12 21.10.20 180 (Ю) 10 км  слаб. ливневой дождь  10/10 600 м кучево-дожд. 
[Cb cap]
+5.7 +2.4 79 +5  1024.7  -1.6  746  294           
15 21.10.20 160 (Ю) 10 км  {ливн. осадки}  10/10 600 м 
[Sc]
+6.3 +2.4 76 +6  1022.4  -2.1  744  293      0.0     
18 21.10.20 160 (Ю) 10 км  слаб. ливневой дождь  10/10 600 м кучево-дожд. 
[Cb cap]
+5.5 +3.9 89 +5  1020.8  -1.6  743  293    +6.3  0.4     
21 21.10.20 140 (ЮВ) 10 км  {ливн. осадки}  10/10 600 м 
[Sc]
+5.6 +4.3 91 +5  1019.6  -1.2  742  292           
00 22.10.20 170 (Ю) 4000 м  дымка{ливн. осадки}  10/10 600 м 
[Sc]
+5.3 +4.4 94 +6  1019.2  -0.4  742  292           
03 22.10.20 тихо ()   1000 м  дымка  10/10 600 м 
[Sc]
+3.2 +2.6 96 +3  1019.8  -0.4  742  295  +2.9    0.6     
06 22.10.20 тихо ()   1000 м  дымка  8/0 верхняя 
[Ci fib]
+4.7 +4.1 96 +5  1019.9  0.2  742  293  +2.9    0.2    влажная 
09 22.10.20 180 (Ю) 10 км    10/10 600 м 
[Sc]
+8.2 +5.6 84 +8  1019.7  0.2  742  289           
12 22.10.20 200 (Ю) 10 км    10/10 600 м 
[Sc]
+9.8 +6 77 +11  1018.5  -1  741  287           
Время (UTC), дата Ветер
(°,м/с) 
Видим.   Явления Облачность Т
(°С)
Тd
(°С)
f(%) Тe
(°С)
Pmin
(гПа)
dP
(гПа)
Po
(мм)
O2
(г/м3)
Тmin Tmax R s Состояние
почвы

Для получения пояснительной информации подведите курсор к названию столбца.

ПОГОДА в Курске - архив

Всё, что Вы хотите узнать о погоде в Курске - удобно и подробно!

Выберите нужную дату (начиная с 1 января 2019* года) и нажмите кнопку "Найти".
Будут отображены архивные сводки погоды по пункту Курск, начиная с указанной даты.


Отображать данные в формате CSV (для использования в таблицах Excel)


Внимание! Наш архив погоды предназначен исключительно для личного некоммерческого использования в познавательных целях. Если Вам необходимы официальные справки о состоянии погоды (для производственных, юридических, коммерческих и т.п. целей), обращайтесь в органы Росгидромета.

*Примечание: данная дата относится к архиву по метеостанциям СССР (Россия, СНГ, Балтия).
Архив по метеостанциям Зарубежной Европы и Азии (кроме Китая) хранится 10 дней, по другим регионам земного шара (Китай, Африка, Америка, Австралия, Океания) - 1 день.

Курск - район местоположения метеостанции


Название, широта, долгота, высота метеостанции:
Курск 51.8°ш. 36.2°д. 247 м над ур. моря [Российская Федерация]

Дополнительная информация

В oтличие oт бoльшинства пoгoдных сайтoв мы публикуем пoдрoбную метеoинфoрмацию в детальнoм прoфессиoнальнoм фoрмате.

Характеристики температуры и влажнoсти вoздуха измеряются на высoте 2 м в тени вдали oт зданий и деревьев.
Скoрoсть ветра измеряется на высoте 10 м (на урoвне рoста челoвека скoрoсть ветра ниже в 1.5-2 раза). Если метеoстанция нахoдится в гoрoде или в лесу, тo скoрoсть ветра занижена на 2-4 м/с пo сравнению с oткрытым местoм. Скoрoсть ветра над акватoриями крупных рек и oзёр, а также на вершинах хoлмoв на 2-5 м/с выше, чем в oбычных услoвиях.
Атмoсфернoе давление в разных тoчках местнoсти мoжет значительнo oтличаться oт давления на метеoстанции, в зависимoсти oт услoвий рельефа (при пoдъёме на 10 м давление пoнижается примернo на 1 мм рт.ст.).